TimeCDT,TemperatureF,Dew PointF,Humidity,Sea Level PressureIn,VisibilityMPH,Wind Direction,Wind SpeedMPH,Gust SpeedMPH,PrecipitationIn,Events,Conditions,WindDirDegrees,DateUTC
12:15 AM,51.8,50.0,94,29.64,10.0,NE,3.5,-,N/A,,Clear,50,2013-04-30 05:15:00
12:35 AM,50.0,50.0,100,29.64,10.0,Calm,Calm,-,N/A,,Clear,0,2013-04-30 05:35:00
12:55 AM,51.8,50.0,94,29.63,10.0,Calm,Calm,-,N/A,,Clear,0,2013-04-30 05:55:00
1:15 AM,51.8,50.0,94,29.62,7.0,NNE,3.5,-,N/A,,Scattered Clouds,30,2013-04-30 06:15:00
1:35 AM,50.0,50.0,100,29.61,7.0,ENE,3.5,-,N/A,,Clear,60,2013-04-30 06:35:00
2:15 AM,50.0,50.0,100,29.59,7.0,Calm,Calm,-,N/A,,Clear,0,2013-04-30 07:15:00
2:35 AM,50.0,50.0,100,29.59,7.0,Calm,Calm,-,N/A,,Clear,0,2013-04-30 07:35:00
2:55 AM,48.2,48.2,100,29.58,7.0,Calm,Calm,-,N/A,Thunderstorm,Clear,0,2013-04-30 07:55:00
3:15 AM,48.2,48.2,100,29.59,4.0,Calm,Calm,-,N/A,,Clear,0,2013-04-30 08:15:00
3:35 AM,46.4,46.4,100,29.58,7.0,Calm,Calm,-,N/A,Thunderstorm,Clear,0,2013-04-30 08:35:00
3:55 AM,46.4,46.4,100,29.58,4.0,Calm,Calm,-,N/A,,Scattered Clouds,0,2013-04-30 08:55:00
4:15 AM,46.4,46.4,100,29.58,4.0,Calm,Calm,-,N/A,Thunderstorm,Scattered Clouds,0,2013-04-30 09:15:00
4:35 AM,55.4,55.4,100,29.58,10.0,South,4.6,-,N/A,,Clear,180,2013-04-30 09:35:00
4:55 AM,59.0,59.0,100,29.58,10.0,South,4.6,-,N/A,,Clear,190,2013-04-30 09:55:00
5:15 AM,60.8,57.2,88,29.59,10.0,South,6.9,-,N/A,Thunderstorm,Clear,190,2013-04-30 10:15:00
5:35 AM,62.6,53.6,72,29.59,10.0,South,8.1,-,N/A,,Clear,180,2013-04-30 10:35:00
5:55 AM,62.6,53.6,72,29.58,10.0,South,5.8,-,N/A,,Clear,180,2013-04-30 10:55:00
6:15 AM,62.6,53.6,72,29.58,10.0,South,5.8,-,N/A,Thunderstorm,Clear,170,2013-04-30 11:15:00
6:35 AM,62.6,55.4,77,29.58,10.0,South,4.6,-,N/A,Thunderstorm,Clear,170,2013-04-30 11:35:00
6:55 AM,62.6,55.4,77,29.58,10.0,South,4.6,-,N/A,,Mostly Cloudy,180,2013-04-30 11:55:00
7:15 AM,62.6,55.4,77,29.59,10.0,South,4.6,-,N/A,Thunderstorm,Scattered Clouds,180,2013-04-30 12:15:00
7:35 AM,64.4,55.4,73,29.58,10.0,South,5.8,-,N/A,Thunderstorm,Clear,180,2013-04-30 12:35:00
7:55 AM,64.4,55.4,73,29.58,10.0,South,3.5,-,N/A,,Clear,180,2013-04-30 12:55:00
8:15 AM,66.2,55.4,68,29.58,10.0,South,8.1,-,N/A,,Clear,170,2013-04-30 13:15:00
8:35 AM,68.0,55.4,64,29.57,10.0,South,9.2,-,N/A,,Clear,180,2013-04-30 13:35:00
8:55 AM,69.8,55.4,60,29.57,10.0,South,10.4,16.1,N/A,,Clear,190,2013-04-30 13:55:00
9:15 AM,71.6,55.4,57,29.57,10.0,SSW,11.5,18.4,N/A,,Clear,200,2013-04-30 14:15:00
9:35 AM,73.4,53.6,50,29.57,10.0,SSW,12.7,19.6,N/A,,Clear,200,2013-04-30 14:35:00
9:55 AM,73.4,51.8,47,29.57,10.0,SSW,16.1,26.5,N/A,,Clear,210,2013-04-30 14:55:00
10:15 AM,77.0,51.8,41,29.56,10.0,SSW,13.8,26.5,N/A,,Clear,210,2013-04-30 15:15:00
10:35 AM,77.0,51.8,41,29.57,10.0,SW,12.7,23.0,N/A,,Clear,220,2013-04-30 15:35:00
10:55 AM,78.8,51.8,39,29.57,10.0,SW,15.0,23.0,N/A,,Clear,230,2013-04-30 15:55:00
11:15 AM,78.8,50.0,36,29.57,10.0,SSW,18.4,27.6,N/A,,Clear,210,2013-04-30 16:15:00
11:35 AM,78.8,50.0,36,29.58,10.0,WSW,18.4,24.2,N/A,,Clear,250,2013-04-30 16:35:00
11:55 AM,78.8,50.0,36,29.59,10.0,WSW,19.6,33.4,N/A,,Clear,240,2013-04-30 16:55:00
12:15 PM,80.6,50.0,34,29.60,10.0,SW,17.3,29.9,N/A,,Clear,230,2013-04-30 17:15:00
12:35 PM,80.6,50.0,34,29.60,10.0,SW,15.0,23.0,N/A,,Clear,220,2013-04-30 17:35:00
1:15 PM,82.4,50.0,32,29.60,10.0,SW,17.3,25.3,N/A,,Clear,230,2013-04-30 18:15:00
1:35 PM,80.6,50.0,34,29.62,10.0,SW,17.3,27.6,N/A,,Scattered Clouds,220,2013-04-30 18:35:00
1:55 PM,80.6,50.0,34,29.62,10.0,SW,12.7,25.3,N/A,,Scattered Clouds,230,2013-04-30 18:55:00
2:15 PM,82.4,50.0,32,29.63,10.0,SW,13.8,23.0,N/A,,Scattered Clouds,220,2013-04-30 19:15:00
2:35 PM,80.6,50.0,34,29.64,10.0,SW,17.3,24.2,N/A,,Mostly Cloudy,220,2013-04-30 19:35:00
2:55 PM,82.4,51.8,35,29.64,10.0,WSW,13.8,21.9,N/A,,Mostly Cloudy,240,2013-04-30 19:55:00
3:15 PM,84.2,50.0,30,29.65,10.0,SW,12.7,20.7,N/A,,Scattered Clouds,220,2013-04-30 20:15:00
3:35 PM,82.4,50.0,32,29.66,10.0,SSW,10.4,19.6,N/A,,Mostly Cloudy,210,2013-04-30 20:35:00
3:55 PM,82.4,50.0,32,29.66,10.0,WSW,13.8,21.9,N/A,,Mostly Cloudy,250,2013-04-30 20:55:00
4:15 PM,84.2,50.0,30,29.66,10.0,WSW,12.7,16.1,N/A,,Scattered Clouds,240,2013-04-30 21:15:00
4:35 PM,82.4,50.0,32,29.67,10.0,SW,13.8,18.4,N/A,,Scattered Clouds,230,2013-04-30 21:35:00
4:55 PM,82.4,50.0,32,29.67,10.0,WSW,6.9,-,N/A,,Scattered Clouds,250,2013-04-30 21:55:00
5:15 PM,82.4,50.0,32,29.68,10.0,WSW,8.1,-,N/A,,Mostly Cloudy,240,2013-04-30 22:15:00
5:35 PM,82.4,50.0,32,29.68,10.0,WSW,11.5,19.6,N/A,,Scattered Clouds,250,2013-04-30 22:35:00
5:55 PM,82.4,50.0,32,29.69,10.0,West,9.2,19.6,N/A,,Clear,260,2013-04-30 22:55:00
6:15 PM,80.6,50.0,34,29.71,10.0,WSW,9.2,-,N/A,,Scattered Clouds,240,2013-04-30 23:15:00
6:35 PM,80.6,44.6,28,29.73,10.0,WNW,12.7,20.7,N/A,,Mostly Cloudy,290,2013-04-30 23:35:00
6:55 PM,77.0,44.6,32,29.73,10.0,WNW,10.4,24.2,N/A,,Scattered Clouds,290,2013-04-30 23:55:00
7:35 PM,75.2,44.6,34,29.74,10.0,Calm,Calm,-,N/A,,Mostly Cloudy,0,2013-05-01 00:35:00
7:55 PM,73.4,42.8,33,29.75,10.0,NW,5.8,-,N/A,,Overcast,320,2013-05-01 00:55:00
8:15 PM,71.6,44.6,38,29.77,10.0,NW,8.1,-,N/A,Thunderstorm,Overcast,310,2013-05-01 01:15:00
8:35 PM,69.8,42.8,38,29.77,10.0,NW,5.8,-,N/A,,Overcast,320,2013-05-01 01:35:00
8:55 PM,68.0,42.8,40,29.78,10.0,NW,5.8,-,N/A,,Overcast,320,2013-05-01 01:55:00
9:15 PM,60.8,44.6,55,29.82,7.0,NW,10.4,23.0,0.02,Rain-Thunderstorm,Light Thunderstorms and Rain,320,2013-05-01 02:15:00
9:35 PM,59.0,44.6,59,29.82,10.0,North,11.5,18.4,0.02,,Overcast,360,2013-05-01 02:35:00
9:55 PM,57.2,44.6,63,29.86,10.0,North,8.1,-,0.02,Rain,Light Rain,10,2013-05-01 02:55:00
10:15 PM,57.2,46.4,67,29.86,10.0,WNW,5.8,-,N/A,,Overcast,300,2013-05-01 03:15:00
10:35 PM,57.2,44.6,63,29.88,10.0,NW,8.1,-,N/A,,Overcast,310,2013-05-01 03:35:00
10:55 PM,55.4,46.4,72,29.91,10.0,NNW,5.8,-,N/A,Thunderstorm,Overcast,330,2013-05-01 03:55:00
11:15 PM,53.6,46.4,77,29.94,10.0,WNW,8.1,-,N/A,,Overcast,300,2013-05-01 04:15:00
11:35 PM,53.6,46.4,77,29.96,10.0,WNW,8.1,-,N/A,,Overcast,290,2013-05-01 04:35:00
11:55 PM,51.8,46.4,82,29.97,10.0,North,4.6,-,0.02,Rain,Heavy Rain,350,2013-05-01 04:55:00